Regional Weather Roundup
Issued by NWS Sterling, VA

Home | Current Version | Previous Version | Graphics & Text | Print | Product List | Glossary On
Versions: 1 2 3 4 5 6 7 8 9 10 11 12 13 14 15 16 17 18 19 20 21 22 23 24 25 26 27 28 29 30 31 32 33 34 35 36 37 38 39 40 41 42 43 44 45 46 47 48 49 50
000
ASUS41 KLWX 290910
RWRLWX

REGIONAL WEATHER ROUNDUP
NATIONAL WEATHER SERVICE BALTIMORE MD/WASHINGTON DC
500 AM EDT FRI AUG 29 2014

Note: "FAIR" indicates few or no clouds below 12,000 feet
with no significant weather and/or obstructions to visibility.
 TC=TEMPERATURE CELSIUS

 * =Non NWS site. Station does not report precipitation (e.g. rain,
    snow, etc.), thunder, or fog.

DCZ001-MDZ009-015-VAZ040>042-051-053>054-291000-
WASHINGTON METRO
  /KDAA//-FT BELVOIR

CITY           SKY/WX    TMP DP  RH WIND       PRES   REMARKS
WASHINGTON NAT CLEAR     67  51  56 NE7       30.15R
DULLES         CLEAR     60  53  77 N3        30.16R
ANDREWS AFB    CLEAR     58  51  77 N6        30.14R
QUANTICO       CLEAR     64  55  72 N7        30.15R
COLLEGE PARK*  CLEAR     57  55  94 CALM      30.14R
LEESBURG*      CLEAR     59  55  88 N3        30.16S
MANASSAS*      CLEAR     57  55  94 CALM      30.15S
GAITHERSBURG*  CLEAR     55  48  76 CALM      30.19R

$$

MDZ006>007-011-014-291000-
BALTIMORE METRO

CITY           SKY/WX    TMP DP  RH WIND       PRES   REMARKS
BWI AIRPORT    PTCLDY    60  50  69 N5        30.14R
MD SCIENCE CTR   N/A     65  49  56 MISG      30.15R
MARTIN STATE   CLEAR     57  52  82 CALM      30.15R
ANNAPOLIS      CLEAR     67  54  63 N3        30.13R
FORT MEADE*    CLEAR     52  50  93 CALM      30.16S

$$

MDZ012-015-019>023-291000-
MARYLAND EASTERN SHORE

CITY           SKY/WX    TMP DP  RH WIND       PRES   REMARKS
OCEAN CITY     CLEAR     58  55  90 NW3       30.10R
SALISBURY      CLEAR     61  54  77 CALM      30.11R
BAY BRIDGE AP*   N/A     63  50  63 N6        30.13S
CAMBRIDGE*     CLEAR     63  52  67 N6        30.12R
EASTON*        CLEAR     58  54  86 CALM      30.17R

$$

MDZ017>025-291000-
SOUTHERN MARYLAND

CITY           SKY/WX    TMP DP  RH WIND       PRES   REMARKS
PATUXENT RIVER CLEAR     65  53  65 NE10      30.12R
ST INIGOES     CLEAR     66  52  60 NE8       30.11R
LEONARDTOWN*   CLEAR     63  54  72 E3        30.14R

$$

MDZ003>005-291000-
NORTH CENTRAL MARYLAND

CITY           SKY/WX    TMP DP  RH WIND       PRES   REMARKS
FREDERICK*     CLEAR     54  54 100 CALM      30.18S
HAGERSTOWN APT CLEAR     56  51  84 NW3       30.16R
WESTMINSTER*   PTCLDY    55  52  88 N6        30.16R

$$

MDZ501>502-291000-
WESTERN MARYLAND

CITY           SKY/WX    TMP DP  RH WIND       PRES   REMARKS
OAKLAND*       CLEAR     50  50 100 SE7       30.20R
CUMBERLAND*    CLEAR     52  50  93 NE3       30.22R

$$

VAZ025>031-291000-
SHENANDOAH VALLEY

CITY           SKY/WX    TMP DP  RH WIND       PRES   REMARKS
WINCHESTER*    CLEAR     54  52  94 CALM      30.17R
STAUNTON*      CLOUDY    58  54  86 CALM      30.19R

$$

WVZ021-048>050-054>055-291000-
EASTERN WEST VIRGINIA PANHANDLE

CITY           SKY/WX    TMP DP  RH WIND       PRES   REMARKS
MARTINSBURG    CLEAR     55  49  80 CALM      30.17R
PETERSBURG*    NOT AVBL

$$

VAZ036>039-050-291000-
CENTRAL FOOTHILLS

CITY           SKY/WX    TMP DP  RH WIND       PRES   REMARKS
CHARLOTTESVILL PTCLDY    61  55  81 NW3       30.14R
ORANGE*        CLEAR     59  54  82 CALM      30.15R

$$

VAZ055>057-291000-
NORTH AND CENTRAL PIEDMONT

CITY           SKY/WX    TMP DP  RH WIND       PRES   REMARKS
FREDERICKSBRG* CLEAR     60  57  89 NW3       30.12R
STAFFORD*      CLEAR     60  59  96 N5        30.17R

$$

NCZ024-NYZ072-PAZ021-071-VAZ022-071-291000-
OTHER REGIONAL OBSERVATIONS

CITY           SKY/WX    TMP DP  RH WIND       PRES   REMARKS
NEW YORK CITY  CLEAR     63  49  60 CALM      30.13R
PHILADELPHIA   PTCLDY    62  49  62 N8        30.12R
PITTSBURGH     CLEAR     54  50  86 CALM      30.15S
ROANOKE        PTCLDY    67  61  81 CALM      30.16R
RICHMOND       PTCLDY    66  59  78 N5        30.10S
RALEIGH        PTCLDY    74  70  87 NE5       30.05R

$$

ANZ530>537-291000-
MARINE OBSERVATIONS

STATION/POSITION TIME  TEMP    WIND        PRES
                       AIR SEA DIR/SP/G
                 (UTC) (F)     (DEG/KT/KT) (MB)
THOMAS PT LIGHT  0900   68 77   40/ 12/ 13 1021.2R
BALT KEY BRIDGE  0900   71     350/  6/  7 1020.4R
COVE POINT       0900   67      70/  9/ 10 1020.0R
LEWISETTA        0900   72 78   60/ 13/ 18 1019.0R
SOLOMONS ISLAND  0900      79                N/A
PINEY POINT      0900           50/  7/  9   N/A

$$




USA.gov is the U.S. government's official web portal to all federal, state and local government web resources and services.